Regional Weather Roundup
Issued by NWS

Home | Current Version | Previous Version | Graphics & Text | Print | Product List | Glossary On
Versions: 1 2 3 4 5 6 7 8 9 10 11 12 13 14 15 16 17 18 19 20 21 22 23 24 25 26 27 28 29 30 31 32 33 34 35 36 37 38 39 40 41 42 43 44 45 46 47 48 49 50
000
ASUS43 KLOT 031521
RWRIL

ILLINOIS REGIONAL WEATHER ROUNDUP
NATIONAL WEATHER SERVICE CHICAGO/ROMEOVILLE IL
1000 AM CDT MON AUG 03 2015

NOTE: "FAIR" INDICATES FEW OR NO CLOUDS BELOW 12,000 FEET WITH NO
SIGNIFICANT WEATHER AND/OR OBSTRUCTIONS TO VISIBILITY.

* THESE STATIONS ARE NOT UNDER NWS QUALITY CONTROL. THEY ALSO MAY NOT
  REPORT WEATHER SUCH AS PRECIPITATION OR FOG.

ILZ001-002-007-009-015-016-024-031600-
NORTHWEST ILLINOIS

CITY           SKY/WX    TMP DP  RH WIND       PRES   REMARKS
MOLINE         SUNNY     76  53  44 N9        29.90R
STERLING*      SUNNY     79  55  44 N12       29.87S
SAVANNA*       SUNNY     76  47  36 NW10      29.90S
$$

ILZ003-004-008-010-011-017-018-031600-
NORTH CENTRAL ILLINOIS

CITY           SKY/WX    TMP DP  RH WIND       PRES   REMARKS
ROCKFORD       MOSUNNY   76  51  41 NW10      29.90R
FREEPORT*      SUNNY     73  50  43 NW8       29.92R
ROCHELLE*      SUNNY     73  58  60 N9        29.89S
DE KALB*       SUNNY     73  61  64 NW12      29.89R
PERU*          SUNNY     75  56  51 N12       29.88R
$$

ILZ005-006-012>014-019>023-031600-
NORTHEAST ILLINOIS

CITY           SKY/WX    TMP DP  RH WIND       PRES   REMARKS
CHICAGO-OHARE  MOSUNNY   75  57  53 N13       29.85R
CHICAGO-MIDWAY MOSUNNY   79  59  50 N9        29.85R HX  80
AURORA         SUNNY     75  61  61 N13       29.87R
LANSING*       SUNNY     78  62  58 N5        29.85R
JOLIET*        SUNNY     78  61  56 N8        29.86R
WAUKEGAN       SUNNY     73  56  54 NW8       29.85R
DUPAGE AIRPORT SUNNY     75  57  53 NW9       29.86R
KANKAKEE*      SUNNY     79  66  63 NW8       29.86R HX  81
WHEELING       NOT AVBL
MORRIS*        SUNNY     76  62  62 N3        29.85R
ROMEOVILLE*    MOSUNNY   75  60  58 NW9       29.86R
NORTHERLY ISL    N/A     76  60  57 NE8         N/A
$$

LMZ740>746-031600-
SOUTHERN LAKE MICHIGAN

STATION/POSITION SKY/WX   TEMP    WIND        PRES    VSBY  WAVE
                          AIR SEA DIR/SP/G                  HT/PER
                          (F)     (DEG/KT/KT) (MB)    (MI)  (FT/S)
HARRISON CRIB              70     340/ 11/ 12   N/A
BURNHAM HARBOR             76     330/  7/ 13   N/A
CALUMET HARBOR             74     350/  7/ 10   N/A
BURNS HARBOR               72     340/  9/ 10 1010.8R
MICHIGAN CITY              72     290/ 11/ 13   N/A
MICHIGAN CITY 6N           71 74  330/ 10/ 12   N/A           2/ 5
ST. JOSEPH                 70 73  350/ 12/ 14   N/A           2/ 5
$$

ILZ025>027-034>036-040-047-049-050-058-095>099-031600-
WEST-CENTRAL ILLINOIS

CITY           SKY/WX    TMP DP  RH WIND       PRES   REMARKS
QUINCY         PTSUNNY   76  63  64 W6        29.93R
GALESBURG*     SUNNY     74  60  60 N10       29.91R
MACOMB*        SUNNY     75  62  62 N7        29.94R
JACKSONVILLE*  SUNNY     78  68  69 W7        29.91R HX  81
PITTSFIELD*    SUNNY     78  65  63 NW6       29.93S HX  80
$$

ILZ028>032-037-038-041>044-048-051>054-059>061-031600-
CENTRAL ILLINOIS

CITY           SKY/WX    TMP DP  RH WIND       PRES   REMARKS
PONTIAC        SUNNY     79  66  62 N7        29.86F HX  81
BLOOMINGTON    SUNNY     80  67  64 W3        29.88R HX  82
DECATUR        SUNNY     80  69  69 W9        29.87R HX  83
PEORIA         SUNNY     79  64  60 VRB6      29.88R HX  81
LACON*         SUNNY     76  63  64 N9        29.87R
LINCOLN*       SUNNY     80  67  64 W5        29.87R HX  83
SPRINGFIELD    SUNNY     78  68  71 W6        29.89R HX  80
TAYLORVILLE    MOSUNNY   77  68  73 W8        29.89R
$$

ILZ033-039-045-046-055>057-062-063-031600-
EAST-CENTRAL ILLINOIS

CITY           SKY/WX    TMP DP  RH WIND       PRES   REMARKS
CHAMPAIGN      SUNNY     80  70  71 W7        29.86R HX  83
DANVILLE*      SUNNY     80  69  70 NW5       29.82S HX  82
RANTOUL*       SUNNY     82  69  63 NW3       29.85S HX  85
MATTOON        SUNNY     81  67  62 W8        29.86R HX  83
PARIS*         SUNNY     82  72  73 W7        29.86R HX  86
$$

ILZ079-100>102-031600-
SOUTHWEST ILLINOIS

CITY           SKY/WX    TMP DP  RH WIND       PRES   REMARKS
BELLEVILLE     SUNNY     86  66  50 W5        29.88F HX  88
CAHOKIA*       SUNNY     86  63  45 SW6       29.89F HX  87
SPARTA*        SUNNY     83  69  63 W3        29.92S HX  87
$$

ILZ064>066-069>071-074>076-080>082-084>086-088>090-092>094-031600-
SOUTH-CENTRAL ILLINOIS

CITY           SKY/WX    TMP DP  RH WIND       PRES   REMARKS
CARBONDALE     SUNNY     84  69  60 NW3       29.91S HX  88
CAIRO*         SUNNY     83  72  69 W5        29.92S HX  89
EFFINGHAM*     SUNNY     82  62  50 SW7       29.89S HX  83
MARION         MOSUNNY   86  70  58 W7        29.92S HX  90
MT. VERNON     SUNNY     86  66  51 W9        29.91R HX  88
CENTRALIA*     SUNNY     85  64  49 W9        29.90R HX  86
SALEM*         SUNNY     86  65  49 W9        29.90R HX  87
METROPOLIS*    SUNNY     84  75  73 W3        29.93S HX  92
$$

ILZ067-068-072-073-078-083-087-091-031600-
SOUTHEAST ILLINOIS

CITY           SKY/WX    TMP DP  RH WIND       PRES   REMARKS
LAWRENCEVILLE  SUNNY     84  70  62 W9        29.86S HX  88
FLORA*         SUNNY     83  64  52 W6        29.88S HX  85
FAIRFIELD*     SUNNY     84  68  59 W3        29.87S HX  87
HARRISBURG*    SUNNY     86  68  54 W7        29.91S HX  89
ROBINSON*      SUNNY     82  70  66 W7        29.87S HX  85
CARMI*         SUNNY     83  66  56 W7        29.88F HX  85
$$

ABBREVIATIONS USED IN REMARKS
   TC - TEMPERATURE IN CELSIUS
  WCI - WIND CHILL INDEX
   HX - HEAT INDEX
  VSB - VISIBILITY
$$




USA.gov is the U.S. government's official web portal to all federal, state and local government web resources and services.